{"data":{"norad_id":52756,"intl_designator":"2022-057AA","name":"HAWK-5B","alt_names":[],"object_type":"PAYLOAD","status":"ACTIVE","operator":null,"country":"US","launch_date":"2022-05-25","launch_site_code":"AFETR","launch_vehicle":null,"mission":null,"orbit_class":"UNKNOWN","rcs_meters":null,"size_class":null,"mass_kg":null,"dimensions":null,"purposes":["tech_demo"],"wikipedia_slug":null,"has_3d_model":false,"image_url":null,"decayed_at":null,"tle_current":{"epoch":"2026-09-19T21:28:43.243680Z","epoch_age_seconds":67035,"freshness":"FRESH","line1":"1 52756U 22057AA  26262.89494495  .00014572  00000+0  22336-3 0  9998","line2":"2 52756  97.6701  67.3224 0005361  81.3789 278.8071 15.54427368241041","mean_motion":15.54427368,"eccentricity":0.0005361,"inclination_deg":97.6701,"raan_deg":67.3224,"arg_perigee_deg":81.3789,"mean_anomaly_deg":278.8071,"bstar":0.00022336,"rev_number":24104,"period_min":92.638615971666,"perigee_km":400.18190498616,"apogee_km":407.4535168272,"semimajor_km":6781.9547109067,"source":"CELESTRAK","updated_at":"2026-09-20T09:00:47.450690Z"}}}